TimeCST,TemperatureF,Dew PointF,Humidity,Sea Level PressureIn,VisibilityMPH,Wind Direction,Wind SpeedMPH,Gust SpeedMPH,PrecipitationIn,Events,Conditions,WindDirDegrees,DateUTC
12:52 AM,19.9,16.0,85,30.09,8.0,NNW,12.7,-,N/A,,Clear,330,2013-02-28 06:52:00
1:52 AM,18.0,15.1,88,30.10,8.0,NW,12.7,-,N/A,,Clear,320,2013-02-28 07:52:00
2:52 AM,17.1,14.0,88,30.11,7.0,NNW,12.7,-,N/A,,Clear,330,2013-02-28 08:52:00
3:52 AM,17.1,14.0,88,30.11,7.0,NW,16.1,-,N/A,,Clear,320,2013-02-28 09:52:00
4:42 AM,17.6,15.8,93,30.07,7.0,NW,13.8,-,N/A,,Mostly Cloudy,320,2013-02-28 10:42:00
4:52 AM,19.0,16.0,88,30.13,8.0,NW,13.8,-,N/A,,Overcast,320,2013-02-28 10:52:00
5:52 AM,21.9,18.0,85,30.15,8.0,NW,15.0,-,N/A,,Overcast,320,2013-02-28 11:52:00
6:06 AM,21.2,17.6,86,30.09,8.0,NW,13.8,-,N/A,,Overcast,320,2013-02-28 12:06:00
6:52 AM,21.9,18.0,85,30.15,9.0,NNW,13.8,-,N/A,,Overcast,330,2013-02-28 12:52:00
7:59 AM,21.2,17.6,86,30.11,7.0,NNW,12.7,-,N/A,,Overcast,330,2013-02-28 13:59:00
8:52 AM,23.0,19.0,85,30.19,6.0,NW,12.7,-,N/A,,Overcast,320,2013-02-28 14:52:00
9:52 AM,25.0,19.9,81,30.20,9.0,NW,11.5,-,N/A,,Overcast,320,2013-02-28 15:52:00
10:52 AM,26.1,21.0,81,30.20,10.0,NW,15.0,-,N/A,,Overcast,310,2013-02-28 16:52:00
11:19 AM,26.6,21.2,80,30.14,10.0,NW,15.0,-,N/A,,Overcast,320,2013-02-28 17:19:00
11:52 AM,27.0,21.0,78,30.21,10.0,NW,13.8,-,N/A,,Overcast,320,2013-02-28 17:52:00
12:52 PM,27.0,21.0,78,30.20,10.0,NNW,15.0,-,N/A,,Overcast,340,2013-02-28 18:52:00
1:52 PM,27.0,21.0,78,30.20,10.0,NNW,12.7,-,N/A,,Overcast,340,2013-02-28 19:52:00
2:08 PM,26.6,21.2,80,30.14,9.0,NNW,15.0,-,N/A,,Overcast,340,2013-02-28 20:08:00
2:43 PM,26.6,21.2,80,30.14,10.0,NNW,13.8,-,N/A,,Overcast,340,2013-02-28 20:43:00
3:52 PM,26.1,21.0,81,30.21,10.0,NNW,13.8,-,N/A,,Overcast,330,2013-02-28 21:52:00
4:52 PM,26.1,21.0,81,30.20,9.0,NNW,15.0,-,N/A,,Overcast,340,2013-02-28 22:52:00
5:52 PM,26.1,21.0,81,30.22,9.0,NNW,10.4,-,N/A,,Overcast,340,2013-02-28 23:52:00
6:52 PM,25.0,21.0,85,30.23,9.0,NNW,10.4,-,N/A,,Overcast,340,2013-03-01 00:52:00
7:31 PM,24.8,21.2,86,30.17,10.0,NNW,10.4,-,N/A,,Overcast,340,2013-03-01 01:31:00
7:52 PM,24.1,21.0,88,30.23,9.0,NNW,10.4,-,N/A,,Overcast,330,2013-03-01 01:52:00
8:01 PM,24.8,21.2,86,30.17,9.0,NNW,10.4,-,N/A,,Overcast,330,2013-03-01 02:01:00
8:20 PM,24.8,21.2,86,30.17,9.0,NNW,11.5,-,N/A,,Overcast,340,2013-03-01 02:20:00
8:52 PM,24.1,21.0,88,30.23,9.0,NNW,11.5,-,N/A,,Overcast,330,2013-03-01 02:52:00
9:52 PM,24.1,19.9,84,30.24,8.0,NNW,12.7,-,N/A,,Overcast,330,2013-03-01 03:52:00
10:52 PM,24.1,19.9,84,30.24,8.0,NNW,11.5,-,N/A,,Overcast,330,2013-03-01 04:52:00
11:52 PM,24.1,19.9,84,30.23,8.0,NNW,10.4,-,N/A,,Overcast,340,2013-03-01 05:52:00